When you browse on this site, cookies collect data to enhance your experience and personalize the content and advertising you see.
Visit our Privacy Policy to learn more. By continuing to use the site, you agree to this use of cookies and data.

Hourly Weather Madras

Today, 16 July, Thursday

Time Temperature Precipitation Wind Pressure Humidity
00:00 +30°C° 1.5 mm 4 mps 752 mmHg 78%
01:00 +29°C° 1.5 mm 3 mps 751 mmHg 80%
02:00 +29°C° 1.5 mm 3 mps 750 mmHg 82%
03:00 +29°C° 0.5 mm 3 mps 750 mmHg 81%
04:00 +29°C° 0.5 mm 3 mps 751 mmHg 80%
05:00 +29°C° 0.5 mm 2 mps 751 mmHg 79%
06:00 +30°C° 0.1 mm 3 mps 751 mmHg 75%
07:00 +31°C° 0.1 mm 3 mps 751 mmHg 71%
08:00 +32°C° 0.1 mm 4 mps 752 mmHg 67%
09:00 +33°C° 0 mm 4 mps 752 mmHg 63%
10:00 +34°C° 0 mm 4 mps 752 mmHg 59%
11:00 +35°C° 0 mm 5 mps 752 mmHg 55%
12:00 +35°C° 0.1 mm 4 mps 751 mmHg 57%
13:00 +34°C° 0.1 mm 4 mps 750 mmHg 59%
14:00 +34°C° 0.1 mm 3 mps 750 mmHg 62%
15:00 +33°C° 0.3 mm 3 mps 750 mmHg 63%
16:00 +33°C° 0.3 mm 3 mps 750 mmHg 65%
17:00 +31°C° 0.3 mm 3 mps 750 mmHg 67%
18:00 +32°C° 0.5 mm 4 mps 751 mmHg 69%
19:00 +32°C° 0.5 mm 4 mps 751 mmHg 71%
20:00 +30°C° 0.5 mm 5 mps 752 mmHg 74%
21:00 +30°C° 0.6 mm 5 mps 752 mmHg 75%
22:00 +30°C° 0.6 mm 5 mps 752 mmHg 76%
23:00 +29°C° 0.6 mm 5 mps 752 mmHg 77%

Tomorrow, 17 July, Friday

Time Temperature Precipitation Wind Pressure Humidity
00:00 +29°C° 0 mm 5 mps 752 mmHg 78%
01:00 +29°C° 0 mm 4 mps 751 mmHg 78%
02:00 +29°C° 0 mm 4 mps 751 mmHg 79%
03:00 +29°C° 0.2 mm 4 mps 751 mmHg 80%
04:00 +29°C° 0.2 mm 4 mps 751 mmHg 80%
05:00 +29°C° 0.2 mm 4 mps 751 mmHg 81%
06:00 +29°C° 0 mm 4 mps 752 mmHg 77%
07:00 +30°C° 0 mm 4 mps 752 mmHg 73%
08:00 +30°C° 0 mm 4 mps 753 mmHg 69%
09:00 +32°C° 0 mm 4 mps 752 mmHg 66%
10:00 +33°C° 0 mm 4 mps 752 mmHg 62%
11:00 +34°C° 0 mm 4 mps 752 mmHg 59%
12:00 +35°C° 0 mm 4 mps 752 mmHg 56%
13:00 +36°C° 0 mm 4 mps 751 mmHg 53%
14:00 +36°C° 0 mm 3 mps 750 mmHg 51%
15:00 +36°C° 0.1 mm 4 mps 750 mmHg 55%
16:00 +35°C° 0.1 mm 5 mps 750 mmHg 59%
17:00 +34°C° 0.1 mm 6 mps 750 mmHg 63%
18:00 +33°C° 0.3 mm 6 mps 751 mmHg 65%
19:00 +33°C° 0.3 mm 6 mps 751 mmHg 68%
20:00 +32°C° 0.3 mm 6 mps 752 mmHg 71%
21:00 +32°C° 1.1 mm 6 mps 752 mmHg 72%
22:00 +32°C° 1.1 mm 6 mps 752 mmHg 73%
23:00 +30°C° 1.1 mm 6 mps 752 mmHg 74%

Day after tomorrow, 18 July, Saturday

Time Temperature Precipitation Wind Pressure Humidity
00:00 +30°C° 1.2 mm 6 mps 752 mmHg 75%
01:00 +30°C° 1.2 mm 6 mps 752 mmHg 76%
02:00 +30°C° 1.2 mm 6 mps 751 mmHg 77%
03:00 +29°C° 0.7 mm 5 mps 751 mmHg 77%
04:00 +29°C° 0.7 mm 4 mps 752 mmHg 78%
05:00 +29°C° 0.7 mm 4 mps 752 mmHg 79%
06:00 +29°C° 0.4 mm 4 mps 752 mmHg 77%
07:00 +30°C° 0.4 mm 3 mps 753 mmHg 76%
08:00 +30°C° 0.4 mm 3 mps 753 mmHg 74%
09:00 +30°C° 0.5 mm 4 mps 753 mmHg 72%
10:00 +32°C° 0.5 mm 4 mps 754 mmHg 71%
11:00 +32°C° 0.5 mm 5 mps 754 mmHg 69%
12:00 +32°C° 0.5 mm 5 mps 753 mmHg 71%
13:00 +30°C° 0.5 mm 5 mps 753 mmHg 73%
14:00 +30°C° 0.5 mm 6 mps 752 mmHg 76%
15:00 +30°C° 0 mm 6 mps 752 mmHg 77%
16:00 +30°C° 0 mm 6 mps 752 mmHg 79%
17:00 +30°C° 0 mm 6 mps 751 mmHg 80%
18:00 +30°C° 0 mm 5 mps 752 mmHg 81%
19:00 +29°C° 0 mm 5 mps 752 mmHg 81%
20:00 +29°C° 0 mm 5 mps 753 mmHg 82%
21:00 +29°C° 0 mm 5 mps 753 mmHg 82%
22:00 +29°C° 0 mm 5 mps 753 mmHg 81%
23:00 +29°C° 0 mm 5 mps 753 mmHg 81%

19 July, Sunday

Time Temperature Precipitation Wind Pressure Humidity
00:00 +29°C° 0 mm 5 mps 753 mmHg 81%
01:00 +29°C° 0 mm 5 mps 752 mmHg 80%
02:00 +29°C° 0 mm 5 mps 752 mmHg 80%
03:00 +29°C° 0.1 mm 4 mps 752 mmHg 79%
04:00 +29°C° 0.1 mm 4 mps 752 mmHg 79%
05:00 +29°C° 0.1 mm 4 mps 752 mmHg 79%
06:00 +29°C° 0.4 mm 3 mps 753 mmHg 78%
07:00 +29°C° 0.4 mm 3 mps 753 mmHg 77%
08:00 +30°C° 0.4 mm 3 mps 754 mmHg 76%
09:00 +30°C° 0.1 mm 3 mps 754 mmHg 73%
10:00 +31°C° 0.1 mm 3 mps 754 mmHg 69%
11:00 +31°C° 0.1 mm 3 mps 753 mmHg 66%
12:00 +33°C° 0 mm 3 mps 753 mmHg 62%
13:00 +34°C° 0 mm 2 mps 752 mmHg 59%
14:00 +35°C° 0 mm 2 mps 752 mmHg 55%
15:00 +35°C° 0 mm 2 mps 752 mmHg 56%
16:00 +35°C° 0 mm 3 mps 751 mmHg 57%
17:00 +35°C° 0 mm 3 mps 751 mmHg 58%
18:00 +34°C° 0 mm 3 mps 752 mmHg 61%
19:00 +33°C° 0 mm 3 mps 752 mmHg 65%
20:00 +31°C° 0 mm 3 mps 753 mmHg 69%
21:00 +31°C° 0 mm 3 mps 753 mmHg 72%
22:00 +30°C° 0 mm 4 mps 753 mmHg 74%
23:00 +30°C° 0 mm 4 mps 753 mmHg 76%

20 July, Monday

Time Temperature Precipitation Wind Pressure Humidity
00:00 +30°C° 0.1 mm 3 mps 753 mmHg 76%
01:00 +30°C° 0.1 mm 3 mps 752 mmHg 77%
02:00 +29°C° 0.1 mm 3 mps 752 mmHg 77%
03:00 +29°C° 0.5 mm 3 mps 752 mmHg 78%
04:00 +29°C° 0.5 mm 3 mps 752 mmHg 79%
05:00 +29°C° 0.5 mm 4 mps 752 mmHg 79%
06:00 +30°C° 0.3 mm 4 mps 752 mmHg 75%
07:00 +32°C° 0.3 mm 4 mps 753 mmHg 70%
08:00 +33°C° 0.3 mm 4 mps 753 mmHg 65%
09:00 +34°C° 0 mm 4 mps 753 mmHg 60%
10:00 +35°C° 0 mm 4 mps 753 mmHg 56%
11:00 +36°C° 0 mm 4 mps 753 mmHg 51%
12:00 +36°C° 0 mm 4 mps 752 mmHg 52%
13:00 +36°C° 0 mm 4 mps 751 mmHg 54%
14:00 +36°C° 0 mm 4 mps 750 mmHg 56%
15:00 +35°C° 0 mm 5 mps 750 mmHg 58%
16:00 +34°C° 0 mm 5 mps 750 mmHg 61%
17:00 +34°C° 0 mm 6 mps 750 mmHg 64%
18:00 +33°C° 0.1 mm 6 mps 751 mmHg 67%
19:00 +33°C° 0.1 mm 6 mps 751 mmHg 69%
20:00 +32°C° 0.1 mm 7 mps 752 mmHg 72%
21:00 +32°C° 0.1 mm 6 mps 752 mmHg 73%
22:00 +32°C° 0.1 mm 6 mps 752 mmHg 74%
23:00 +32°C° 0.1 mm 6 mps 752 mmHg 75%

21 July, Tuesday

Time Temperature Precipitation Wind Pressure Humidity
00:00 +30°C° 0.4 mm 5 mps 752 mmHg 76%
01:00 +30°C° 0.4 mm 4 mps 752 mmHg 77%
02:00 +30°C° 0.4 mm 4 mps 751 mmHg 79%
03:00 +30°C° 0.1 mm 4 mps 751 mmHg 79%
04:00 +29°C° 0.1 mm 4 mps 751 mmHg 80%
05:00 +29°C° 0.1 mm 4 mps 751 mmHg 80%
06:00 +30°C° 0 mm 4 mps 752 mmHg 75%
07:00 +32°C° 0 mm 5 mps 752 mmHg 70%
08:00 +33°C° 0 mm 5 mps 752 mmHg 65%
09:00 +34°C° 0 mm 5 mps 752 mmHg 62%
10:00 +35°C° 0 mm 5 mps 752 mmHg 59%
11:00 +36°C° 0 mm 5 mps 752 mmHg 55%
12:00 +36°C° 0.2 mm 5 mps 751 mmHg 56%
13:00 +36°C° 0.2 mm 6 mps 751 mmHg 56%
14:00 +36°C° 0.2 mm 6 mps 750 mmHg 57%
15:00 +35°C° 0 mm 6 mps 750 mmHg 60%
16:00 +34°C° 0 mm 6 mps 750 mmHg 63%
17:00 +34°C° 0 mm 6 mps 750 mmHg 66%
18:00 +33°C° 0 mm 6 mps 751 mmHg 69%
19:00 +32°C° 0 mm 6 mps 751 mmHg 72%
20:00 +32°C° 0 mm 5 mps 752 mmHg 75%
21:00 +32°C° 0.2 mm 5 mps 752 mmHg 76%
22:00 +30°C° 0.2 mm 5 mps 752 mmHg 78%
23:00 +30°C° 0.2 mm 5 mps 752 mmHg 79%
Show more